{"data":{"norad_id":65181,"intl_designator":"2025-175H","name":"STARLINK-34942","alt_names":[],"object_type":"PAYLOAD","status":"ACTIVE","operator":null,"country":"US","launch_date":"2025-08-14","launch_site_code":"AFWTR","launch_vehicle":null,"mission":null,"orbit_class":"UNKNOWN","rcs_meters":null,"size_class":null,"mass_kg":null,"dimensions":null,"purposes":["comms"],"wikipedia_slug":null,"has_3d_model":false,"image_url":null,"decayed_at":null,"tle_current":{"epoch":"2026-09-20T14:29:36.906432Z","epoch_age_seconds":111938,"freshness":"FRESH","line1":"1 65181U 25175H   26263.60389938  .00011030  00000+0  34326-3 0  9991","line2":"2 65181  97.2843 132.6536 0002690 103.2159 256.9384 15.33462450 62121","mean_motion":15.3346245,"eccentricity":0.000269,"inclination_deg":97.2843,"raan_deg":132.6536,"arg_perigee_deg":103.2159,"mean_anomaly_deg":256.9384,"bstar":0.00034326,"rev_number":6212,"period_min":93.90513605338,"perigee_km":463.65032004672,"apogee_km":467.33219204847,"semimajor_km":6843.6282560476,"source":"CELESTRAK","updated_at":"2026-09-21T09:00:35.528741Z"}}}